[[{"header":{"parameterUnit":"m.s-1","parameterCategory":1,"la1":30.2991,"la2":30.254,"lo1":-89.0895,"lo2":-89.0444,"dy":0.0017,"dx":0.0017,"nx":28,"ny":28,"refTime":"2024-10-07T03:00:00:Z","depth":0,"parameterNumber":2,"parameterNumberName":"U-component_of_WINDS"},"data":[0,0,0,0,0,0,0,0,0,0,0,0,0,0,0,0,0,0,0,0,0,0,0,0,0,0,0,0,0,0,0,0,0,0,0,0,0,0,0,0,0,0,0,0,0,0,0,0,0,0,0,0,0,0,0,0,0,0,-0.9799,-0.9799,0,-0.9779,-0.9779,-0.9779,-0.9755,-0.9755,-0.9755,-0.9754,-0.9735,-0.9735,-0.9735,0,0,0,0,0,0,0,0,0,0,0,0,0,-0.9817,-0.9817,-0.9799,-0.9799,-0.9799,-0.9779,-0.9779,-0.9779,-0.9755,-0.9755,-0.9755,-0.9754,-0.9735,-0.9735,-0.9735,0,0,0,0,0,0,0,0,0,0,0,0,0,-0.9805,-0.9817,-0.9799,-0.9785,-0.9783,-0.9779,-0.9779,-0.9779,-0.9756,-0.9755,-0.9755,-0.9754,-0.9735,-0.9735,-0.9735,-0.9744,0,0,-0.9734,-0.9734,0,0,0,0,0,0,0,0,-0.9805,-0.9804,-0.9787,-0.9786,-0.9784,-0.9769,-0.9778,-0.9767,-0.9756,-0.9766,-0.9754,-0.9754,-0.9747,-0.9746,-0.9743,-0.9743,-0.9742,-0.9734,-0.9733,-0.9733,-0.9733,0,0,0,0,0,0,0,-0.9806,-0.9805,-0.9791,-0.9787,-0.9785,-0.9779,-0.9777,-0.9776,-0.976,-0.9765,-0.9763,-0.9761,-0.9746,-0.9743,-0.9742,-0.9742,-0.9734,-0.9733,-0.9733,-0.9733,-0.9747,-0.9748,0,0,0,0,0,0,-0.9809,-0.9806,-0.9792,-0.9791,-0.9794,-0.9779,-0.9777,-0.9775,-0.976,-0.9757,-0.9762,-0.976,-0.9744,-0.9743,-0.9742,-0.9751,-0.9733,-0.9733,-0.9733,-0.9747,-0.9747,-0.9748,0,0,0,0,0,0,-0.981,-0.9808,-0.9793,-0.9798,-0.9795,-0.978,-0.9777,-0.9775,-0.9772,-0.9757,-0.9754,-0.9762,-0.9744,-0.9742,-0.9743,-0.975,-0.9733,-0.9733,-0.9746,-0.9747,-0.9748,-0.977,0,0,0,0,0,0,-0.981,-0.9809,-0.9812,-0.9798,-0.9795,-0.9795,-0.9778,-0.9775,-0.9771,-0.9769,-0.9757,-0.9754,-0.9743,-0.9744,-0.9743,-0.9749,-0.9733,-0.9745,-0.9746,-0.9747,-0.9769,-0.9772,-0.9774,0,0,0,0,0,-0.9811,-0.9819,-0.9812,-0.9811,-0.9799,-0.9795,-0.9794,-0.978,-0.9772,-0.9775,-0.9766,-0.9755,-0.9749,-0.9744,-0.9743,-0.9749,-0.9745,-0.9746,-0.9747,-0.9767,-0.9771,-0.9774,0,0,0,0,0,0,-0.9835,-0.9817,-0.9809,-0.9813,-0.9806,-0.9791,-0.9795,-0.9785,-0.978,-0.9778,-0.9762,-0.9759,-0.9762,-0.9756,-0.975,-0.9757,-0.9745,-0.9747,-0.9761,-0.9764,-0.9767,-0.9769,-0.9732,0,0,0,0,0,-0.9841,-0.9839,-0.9824,-0.9829,-0.9825,-0.9811,-0.9809,-0.9799,-0.9791,-0.9788,-0.9778,-0.9771,-0.9767,-0.9766,-0.9762,-0.9768,-0.9764,-0.9771,-0.9774,-0.9776,-0.9778,-0.978,-0.9782,-0.9752,-0.9752,-0.9752,0,0,-0.9853,-0.9843,-0.9843,-0.9833,-0.9826,-0.9825,-0.9808,-0.9808,-0.9806,-0.9788,-0.9788,-0.9781,-0.9771,-0.9775,-0.9776,-0.977,-0.9785,-0.9778,-0.978,-0.978,-0.9781,-0.9784,-0.9787,-0.9753,-0.9753,-0.9752,0,0,-0.9874,-0.9866,-0.9869,-0.9862,-0.9852,-0.9842,-0.9843,-0.9829,-0.9824,-0.9824,-0.9809,-0.9808,-0.9802,-0.9796,-0.9792,-0.981,-0.9799,-0.9809,-0.9823,-0.9825,-0.9828,-0.983,-0.9836,-0.9838,-0.981,-0.981,-0.981,0,-0.989,-0.9887,-0.9872,-0.9872,-0.9868,-0.985,-0.9853,-0.9848,-0.9837,-0.9834,-0.9827,-0.982,-0.9812,-0.9814,-0.9818,-0.9815,-0.9816,-0.981,-0.9829,-0.983,-0.9832,-0.9838,-0.984,-0.9811,-0.9811,-0.9811,-0.9811,0,-0.9907,-0.9905,-0.9909,-0.9898,-0.9895,-0.9896,-0.9882,-0.988,-0.987,-0.9861,-0.9861,-0.9851,-0.9845,-0.9844,-0.9835,-0.9844,-0.9841,-0.9831,-0.9819,-0.9837,-0.9841,-0.9843,-0.9813,-0.9813,-0.9812,-0.9812,0,0,-0.9943,-0.9923,-0.9925,-0.992,-0.9907,-0.9905,-0.9905,-0.9899,-0.9897,-0.989,-0.989,-0.9885,-0.9876,-0.9872,-0.9862,-0.9864,-0.9878,-0.9854,-0.9854,-0.9859,-0.9887,-0.9894,-0.9897,-0.9871,-0.9871,-0.9872,-0.9888,0,-0.9961,-0.9961,-0.9947,-0.9951,-0.9949,-0.9931,-0.9932,-0.9924,-0.9915,-0.9912,-0.9902,-0.9899,-0.9888,-0.9885,-0.9886,-0.9876,-0.9883,-0.9875,-0.9871,-0.9871,-0.9873,-0.9899,-0.9907,-0.9922,-0.9889,-0.989,-0.989,0,-0.9983,-0.9976,-0.998,-0.9966,-0.9964,-0.9965,-0.9957,-0.9954,-0.9945,-0.9938,-0.9933,-0.9921,-0.9921,-0.9909,-0.9908,-0.9902,-0.99,-0.9894,-0.9895,-0.9894,-0.9881,-0.9899,-0.9927,-0.9929,-0.9893,-0.9893,-0.9892,0,-1.0009,-1.0001,-1.0001,-0.9997,-0.9981,-0.9982,-0.9975,-0.9965,-0.9961,-0.9955,-0.9952,-0.9946,-0.9942,-0.9937,-0.9924,-0.9917,-0.9924,-0.9912,-0.9919,-0.9919,-0.9921,-0.9921,-0.9949,-0.992,-0.992,-0.992,-0.992,0,-1.0031,-1.0033,-1.0012,-1.0013,-1.0015,-0.9999,-1.0002,-0.9993,-0.9984,-0.9983,-0.9967,-0.9966,-0.9949,-0.9946,-0.9936,-0.9936,-0.9935,-0.9929,-0.9926,-0.9931,-0.9931,-0.9929,-0.9927,-0.9921,-0.992,-0.992,-0.992,0,-1.006,-1.0046,-1.0045,-1.003,-1.0026,-1.0028,-1.0015,-1.0014,-1.0004,-1.0003,-1.0001,-0.9986,-0.9981,-0.9968,-0.996,-0.9953,-0.9956,-0.9951,-0.9959,-0.9957,-0.9965,-0.9964,-0.9992,-0.9995,-0.9964,-0.9964,-0.9965,0,-1.0075,-1.0076,-1.006,-1.0058,-1.0052,-1.0048,-1.0044,-1.0029,-1.0025,-1.0014,-1.0015,-1.0009,-1.0004,-0.9997,-0.9985,-0.9979,-0.9973,-0.9984,-0.9972,-0.9976,-0.9973,-0.9973,-0.9973,-0.9986,-0.9987,-0.9987,-0.9987,0,-1.0102,-1.0095,-1.009,-1.0083,-1.0078,-1.0072,-1.0064,-1.0063,-1.0046,-1.0043,-1.0038,-1.0033,-1.0025,-1.0019,-1.0011,-1.0004,-0.9993,-0.9991,-0.9992,-0.9996,-1.0001,-0.9998,-0.9966,-0.999,-0.999,-0.999,-0.9989,-0.9989,-1.0125,-1.0125,-1.0114,-1.0108,-1.0101,-1.0094,-1.0093,-1.0082,-1.0078,-1.0069,-1.006,-1.0056,-1.0046,-1.0033,-1.0027,-1.0024,-1.0018,-1.002,-1.002,-1.0021,-1.0022,-1.0001,-1.0022,-1.0022,-1.0022,-1.0022,-1.0022,0,-1.0151,-1.0143,-1.0138,-1.0128,-1.0124,-1.0113,-1.0104,-1.0101,-1.0098,-1.0089,-1.0083,-1.0077,-1.0071,-1.0059,-1.0052,-1.0051,-1.0046,-1.005,-1.005,-1.0048,-1.0028,-1.0028,-1.0054,-1.0054,-1.0054,-1.0054,-1.0054,-1.0054,-1.0165,-1.0164,-1.0156,-1.0152,-1.0143,-1.0139,-1.0134,-1.0128,-1.0121,-1.0114,-1.0109,-1.0101,-1.009,-1.0082,-1.0076,-1.0072,-1.0071,-1.0076,-1.0071,-1.0053,-1.005,-1.0047,-1.0046,-1.0076,-1.0076,-1.0091,-1.0091,-1.0091]},{"header":{"parameterUnit":"m.s-1","parameterCategory":1,"la1":30.2991,"la2":30.254,"lo1":-89.0895,"lo2":-89.0444,"dy":0.0017,"dx":0.0017,"nx":28,"ny":28,"refTime":"2024-10-07T03:00:00:Z","depth":0,"parameterNumber":3,"parameterNumberName":"V-component_of_WINDS"},"data":[0,0,0,0,0,0,0,0,0,0,0,0,0,0,0,0,0,0,0,0,0,0,0,0,0,0,0,0,0,0,0,0,0,0,0,0,0,0,0,0,0,0,0,0,0,0,0,0,0,0,0,0,0,0,0,0,0,0,-3.8568,-3.8568,0,-3.8548,-3.8548,-3.8547,-3.8515,-3.8515,-3.8514,-3.8514,-3.8489,-3.8489,-3.8489,0,0,0,0,0,0,0,0,0,0,0,0,0,-3.8576,-3.8576,-3.8568,-3.8568,-3.8567,-3.8548,-3.8548,-3.8547,-3.8515,-3.8515,-3.8514,-3.8513,-3.8489,-3.8489,-3.8489,0,0,0,0,0,0,0,0,0,0,0,0,0,-3.8566,-3.8576,-3.8568,-3.8549,-3.8547,-3.8548,-3.8548,-3.8547,-3.8516,-3.8515,-3.8514,-3.8513,-3.8489,-3.8489,-3.8489,-3.8505,0,0,-3.8488,-3.8488,0,0,0,0,0,0,0,0,-3.8567,-3.8566,-3.8552,-3.8551,-3.8548,-3.8533,-3.8542,-3.8533,-3.8516,-3.8528,-3.8514,-3.8513,-3.8504,-3.8503,-3.8501,-3.8504,-3.8503,-3.8488,-3.8488,-3.8488,-3.8488,0,0,0,0,0,0,0,-3.8567,-3.8566,-3.856,-3.8552,-3.855,-3.8541,-3.8539,-3.854,-3.8521,-3.8526,-3.8524,-3.8522,-3.8503,-3.8501,-3.85,-3.8502,-3.8488,-3.8488,-3.8488,-3.8488,-3.852,-3.8521,0,0,0,0,0,0,-3.8571,-3.8567,-3.856,-3.8559,-3.8556,-3.8542,-3.8539,-3.8539,-3.8521,-3.8517,-3.8523,-3.8521,-3.8502,-3.85,-3.8499,-3.8519,-3.8488,-3.8488,-3.8488,-3.8519,-3.852,-3.8521,0,0,0,0,0,0,-3.8572,-3.8571,-3.8561,-3.8563,-3.8561,-3.8542,-3.8543,-3.8539,-3.8537,-3.8518,-3.8514,-3.8525,-3.8501,-3.8499,-3.8505,-3.8517,-3.8488,-3.8488,-3.8518,-3.8519,-3.8521,-3.8557,0,0,0,0,0,0,-3.8572,-3.8571,-3.8578,-3.8563,-3.8561,-3.8568,-3.8543,-3.8539,-3.8537,-3.8534,-3.8519,-3.8515,-3.85,-3.8505,-3.8504,-3.8516,-3.8488,-3.8517,-3.8519,-3.852,-3.8554,-3.8559,-3.8563,0,0,0,0,0,-3.8572,-3.8587,-3.8578,-3.8577,-3.8569,-3.8569,-3.8567,-3.8551,-3.8538,-3.8545,-3.8533,-3.8516,-3.8516,-3.8506,-3.8505,-3.8517,-3.8516,-3.8518,-3.852,-3.8552,-3.8558,-3.8563,0,0,0,0,0,0,-3.8601,-3.8585,-3.8575,-3.8585,-3.8579,-3.8563,-3.857,-3.8557,-3.8553,-3.855,-3.8529,-3.8525,-3.8534,-3.8526,-3.8515,-3.8533,-3.8513,-3.8515,-3.8538,-3.8544,-3.8548,-3.855,-3.8487,0,0,0,0,0,-3.861,-3.8612,-3.8597,-3.8608,-3.8605,-3.8589,-3.8588,-3.8576,-3.8568,-3.8565,-3.8553,-3.8545,-3.8544,-3.8543,-3.854,-3.8553,-3.855,-3.8561,-3.8565,-3.8569,-3.8571,-3.858,-3.8585,-3.8528,-3.8528,-3.8528,0,0,-3.8625,-3.8616,-3.8619,-3.8613,-3.8607,-3.861,-3.8586,-3.859,-3.8592,-3.8565,-3.857,-3.8562,-3.8551,-3.8561,-3.8565,-3.8554,-3.8586,-3.8572,-3.8575,-3.8575,-3.8582,-3.8588,-3.8593,-3.853,-3.853,-3.8529,0,0,-3.8656,-3.8649,-3.8659,-3.8654,-3.8645,-3.8635,-3.8637,-3.8624,-3.8618,-3.8624,-3.8604,-3.8606,-3.8603,-3.8597,-3.8594,-3.8625,-3.861,-3.8625,-3.8648,-3.8657,-3.8661,-3.8665,-3.8678,-3.8683,-3.8627,-3.8627,-3.8627,0,-3.8676,-3.8681,-3.8665,-3.8671,-3.8669,-3.8647,-3.8657,-3.8652,-3.8643,-3.8642,-3.8631,-3.8629,-3.862,-3.8629,-3.8638,-3.8635,-3.8638,-3.8627,-3.8662,-3.8666,-3.8669,-3.8681,-3.8686,-3.8629,-3.8629,-3.8628,-3.8628,0,-3.8708,-3.8711,-3.872,-3.8714,-3.8713,-3.8721,-3.8706,-3.8707,-3.8695,-3.8686,-3.8692,-3.8681,-3.8677,-3.8678,-3.8666,-3.8687,-3.8681,-3.8666,-3.8646,-3.8677,-3.8688,-3.8692,-3.8632,-3.8631,-3.863,-3.863,0,0,-3.8755,-3.8742,-3.8746,-3.8744,-3.8734,-3.8736,-3.8743,-3.8741,-3.8743,-3.8738,-3.8744,-3.8743,-3.8731,-3.8727,-3.8714,-3.8721,-3.8749,-3.8706,-3.8705,-3.8716,-3.8773,-3.8786,-3.8791,-3.8739,-3.874,-3.874,-3.8775,0,-3.8785,-3.8798,-3.8784,-3.8799,-3.8804,-3.8784,-3.879,-3.8784,-3.8776,-3.8778,-3.8768,-3.8769,-3.8751,-3.8749,-3.8755,-3.8745,-3.8761,-3.8742,-3.8745,-3.8745,-3.8749,-3.8797,-3.8809,-3.8842,-3.8779,-3.878,-3.878,0,-3.8821,-3.8821,-3.8837,-3.8829,-3.883,-3.8836,-3.8834,-3.8836,-3.883,-3.8823,-3.8821,-3.8806,-3.8812,-3.8793,-3.8802,-3.8789,-3.879,-3.8785,-3.8786,-3.8786,-3.8765,-3.88,-3.8852,-3.8857,-3.8786,-3.8786,-3.8785,0,-3.8857,-3.8859,-3.887,-3.8869,-3.8859,-3.8864,-3.886,-3.8853,-3.8854,-3.8851,-3.8852,-3.885,-3.8849,-3.8848,-3.8833,-3.882,-3.8844,-3.8823,-3.884,-3.884,-3.8846,-3.8846,-3.8901,-3.8844,-3.8844,-3.8844,-3.8844,0,-3.8892,-3.8903,-3.8887,-3.8893,-3.8906,-3.889,-3.8902,-3.8896,-3.8891,-3.8896,-3.8877,-3.8882,-3.8862,-3.8865,-3.8853,-3.8864,-3.8863,-3.8858,-3.8855,-3.8861,-3.8862,-3.8861,-3.8859,-3.8845,-3.8845,-3.8845,-3.8845,0,-3.8934,-3.8923,-3.8934,-3.8925,-3.8923,-3.8932,-3.8924,-3.893,-3.8921,-3.8928,-3.8929,-3.8915,-3.8917,-3.8903,-3.8902,-3.8894,-3.8911,-3.8903,-3.8914,-3.8912,-3.893,-3.8929,-3.8987,-3.8994,-3.8932,-3.8933,-3.8933,0,-3.8958,-3.8967,-3.8959,-3.8962,-3.896,-3.8965,-3.8966,-3.8951,-3.8953,-3.8948,-3.8955,-3.8956,-3.8957,-3.8962,-3.8951,-3.8951,-3.8944,-3.8965,-3.8944,-3.895,-3.8947,-3.8947,-3.8949,-3.8969,-3.897,-3.8971,-3.8971,0,-3.9002,-3.8997,-3.9,-3.9002,-3.9005,-3.9005,-3.9004,-3.9007,-3.8991,-3.8994,-3.8998,-3.8999,-3.9,-3.9002,-3.9001,-3.8995,-3.8981,-3.8978,-3.8982,-3.8988,-3.8995,-3.8994,-3.8927,-3.8977,-3.8976,-3.8976,-3.8975,-3.8975,-3.9037,-3.9045,-3.9042,-3.9046,-3.9045,-3.9045,-3.9051,-3.9044,-3.9047,-3.9048,-3.9039,-3.9045,-3.904,-3.9037,-3.9034,-3.9038,-3.9028,-3.9034,-3.9035,-3.9037,-3.9042,-3.8994,-3.9037,-3.9037,-3.9037,-3.9037,-3.9037,0,-3.9082,-3.908,-3.9084,-3.9085,-3.9089,-3.9077,-3.9075,-3.9079,-3.9086,-3.9083,-3.9085,-3.909,-3.9093,-3.9084,-3.9085,-3.9091,-3.9084,-3.9092,-3.9092,-3.9091,-3.9049,-3.9046,-3.9097,-3.9097,-3.9097,-3.9097,-3.9097,-3.9097,-3.9106,-3.9119,-3.9114,-3.9127,-3.9124,-3.9132,-3.9132,-3.9133,-3.9131,-3.9138,-3.9141,-3.9136,-3.9131,-3.9132,-3.9134,-3.9131,-3.9133,-3.9144,-3.9139,-3.91,-3.9094,-3.9088,-3.9086,-3.9144,-3.9144,-3.918,-3.9181,-3.9181]}]]